{"data":{"norad_id":62966,"intl_designator":"2025-029U","name":"STARLINK-32888","alt_names":[],"object_type":"PAYLOAD","status":"ACTIVE","operator":null,"country":"US","launch_date":"2025-02-11","launch_site_code":"AFWTR","launch_vehicle":null,"mission":null,"orbit_class":"UNKNOWN","rcs_meters":null,"size_class":null,"mass_kg":null,"dimensions":null,"purposes":["comms"],"wikipedia_slug":null,"has_3d_model":false,"image_url":null,"decayed_at":null,"tle_current":{"epoch":"2026-09-21T21:08:52.881504Z","epoch_age_seconds":45883,"freshness":"FRESH","line1":"1 62966U 25029U   26264.88116761  .00016838  00000+0  50828-3 0  9996","line2":"2 62966  53.1595  39.1763 0000916  94.5351 265.5757 15.34404059 91384","mean_motion":15.34404059,"eccentricity":9.16e-5,"inclination_deg":53.1595,"raan_deg":39.1763,"arg_perigee_deg":94.5351,"mean_anomaly_deg":265.5757,"bstar":0.00050828,"rev_number":9138,"period_min":93.847509823356,"perigee_km":462.06455616938,"apogee_km":463.31779589123,"semimajor_km":6840.8281760303,"source":"CELESTRAK","updated_at":"2026-09-22T09:00:49.715007Z"}}}